Theta_e
307 306 307 309 311 313 314 314 316 317 318 319 320 320 321 321 321 321 322 322 323 325 324 322 323 322 322 322 322 321 322 320 321 334 337 339 340 340 339 339 339 339 339 338
307 308 307 307 308 310 312 313 314 314 314 316 319 320 320 318 319 319 320 321 322 322 322 324 323 323 323 323 321 321 320 320 322 334 338 340 341 339 338 339 340 340 339 337
308 309 307 306 307 309 311 313 314 314 314 315 316 318 319 319 319 318 319 319 319 320 321 324 324 324 323 324 321 320 319 320 323 335 340 340 340 337 339 340 341 340 338 337
307 307 307 307 306 307 310 310 311 313 315 317 316 319 318 318 318 318 318 318 319 319 319 321 323 325 324 322 322 319 318 321 328 338 340 340 341 340 340 340 341 339 339 339
310 309 307 307 307 307 307 309 310 310 312 314 314 315 316 316 317 317 317 317 318 319 318 318 319 321 319 319 320 322 327 331 335 339 340 341 342 342 341 341 341 340 340 339
311 311 309 307 306 306 308 308 310 311 311 314 313 313 315 315 316 316 316 316 317 318 317 317 318 317 318 319 325 335 339 340 338 339 341 342 342 339 341 341 341 341 339 338
312 312 311 310 307 306 306 309 311 310 311 313 311 313 314 315 314 315 316 318 318 318 318 319 320 320 320 330 336 339 341 341 341 341 341 341 341 341 342 342 340 337 337 336
318 314 312 310 310 307 307 308 310 310 311 310 310 312 313 315 315 315 316 317 318 319 320 320 319 320 326 335 337 341 343 342 341 340 339 339 340 340 339 338 337 337 336 336
314 314 312 312 311 307 308 308 308 309 311 311 310 311 312 312 313 314 315 319 324 326 327 326 333 334 337 337 338 343 343 341 340 339 338 337 337 337 336 336 335 335 336 335
312 314 312 310 310 311 310 309 310 309 311 311 312 311 312 315 314 317 319 321 323 331 334 331 337 336 337 339 343 343 341 340 339 338 337 337 336 335 334 334 335 335 334 333
311 312 310 309 310 312 313 311 310 310 310 311 314 315 316 316 316 317 317 317 322 333 334 336 336 336 339 341 341 340 339 338 337 337 335 335 334 334 334 335 334 334 333 332
311 312 313 310 309 309 309 310 311 312 311 310 310 312 313 315 315 316 316 316 318 334 334 336 336 337 341 341 340 340 339 338 336 335 335 335 334 334 334 333 333 331 331 331
311 312 311 309 312 311 310 310 311 313 313 314 312 311 313 313 314 315 316 316 321 335 336 335 337 341 342 340 338 337 336 335 334 334 334 334 333 333 333 332 331 330 331 331
311 311 311 311 310 310 311 310 311 313 314 313 313 313 313 313 314 315 316 317 322 333 337 337 338 340 341 339 337 335 334 334 334 333 333 333 332 332 332 331 331 331 331 331
311 312 310 310 310 311 311 310 310 312 312 313 312 313 313 313 316 315 316 318 317 322 338 338 337 339 339 338 336 335 334 333 333 332 332 333 332 332 331 331 330 331 330 330
310 313 313 312 310 310 310 309 310 311 312 312 312 313 313 314 314 314 315 316 317 326 338 337 336 339 339 337 335 334 334 333 331 332 332 332 332 331 330 329 330 330 330 330
313 311 311 311 308 308 310 309 310 311 311 312 313 312 312 313 315 315 318 321 324 330 338 340 339 340 339 336 334 334 333 332 332 332 333 333 332 331 329 330 330 330 329 329
311 313 312 311 310 310 309 314 314 317 317 317 313 312 312 313 314 320 321 322 328 333 338 341 340 339 337 335 334 333 333 332 333 334 333 333 333 332 330 330 331 328 328 329
309 310 311 312 312 310 310 315 314 314 317 316 315 313 313 313 318 322 321 324 333 335 338 339 338 337 336 335 334 332 331 332 333 334 335 334 332 331 330 330 331 329 329 329
310 310 311 311 312 312 317 313 311 310 318 318 316 316 319 321 325 325 330 332 334 335 337 339 337 336 336 334 333 331 331 332 333 334 335 333 331 331 330 331 331 328 329 330
315 312 312 313 314 313 312 309 309 318 320 313 318 321 322 323 323 327 325 330 333 334 337 337 336 336 335 333 332 331 331 332 333 334 334 331 331 331 330 330 329 329 329 329
315 316 316 314 315 317 310 308 312 312 309 310 313 320 322 322 322 323 325 330 334 335 336 336 336 336 335 333 332 332 333 332 333 334 332 331 331 330 330 330 330 329 329 330
317 314 314 312 314 311 309 305 306 309 312 315 316 318 321 323 323 325 329 333 334 335 336 336 336 335 333 333 332 332 332 332 333 334 332 332 331 330 330 331 331 329 330 330
313 312 313 311 313 311 312 307 310 312 314 316 319 321 321 324 326 328 330 332 334 335 335 335 336 335 334 333 332 332 332 331 333 334 332 332 332 331 331 331 331 331 330 329
313 310 313 312 312 312 311 313 312 314 316 318 319 320 322 324 327 330 331 332 333 333 333 334 335 335 334 332 332 332 331 331 333 334 333 332 332 332 332 331 331 332 331 330
311 312 313 315 313 313 312 313 312 314 316 316 317 319 318 321 326 330 331 332 331 332 331 332 332 334 333 332 332 331 330 331 333 333 333 333 332 332 331 329 328 328 329 328
Wind_Speed
2 9 16 18 16 21 18 11 21 18 7 15 26 30 25 21 24 24 22 21 21 22 20 24 24 26 27 29 32 30 25 22 14 9 12 16 19 16 16 17 17 19 19 18
5 15 13 12 14 15 19 19 14 11 12 8 14 22 17 16 20 21 21 22 22 22 21 19 23 23 26 28 33 33 24 20 15 13 14 9 13 12 14 13 16 17 17 18
17 16 7 9 16 18 18 21 21 14 12 15 13 24 24 22 22 23 23 23 22 23 22 19 19 22 23 23 30 27 25 19 15 15 14 12 12 9 11 13 16 17 16 17
13 18 14 13 14 15 20 11 13 17 14 14 6 12 16 14 18 20 20 19 21 22 20 21 20 18 23 27 22 26 25 19 14 18 19 20 13 12 11 15 14 15 15 15
18 16 14 16 16 15 14 19 14 8 10 11 20 12 21 13 20 18 16 18 21 23 22 21 21 21 28 24 19 17 14 11 13 18 18 18 13 9 13 15 16 14 14 16
22 18 18 18 12 10 14 14 21 17 14 16 19 10 23 18 23 20 18 20 17 15 15 18 18 20 21 14 10 7 9 11 15 16 16 16 16 15 17 17 17 16 15 13
15 19 20 18 18 11 8 11 8 11 11 19 10 13 23 7 5 3 9 12 16 15 16 14 14 12 11 8 7 7 12 13 14 15 14 15 16 17 20 22 21 17 14 12
7 8 7 7 23 18 13 15 8 15 12 17 13 13 9 8 16 11 6 8 12 15 12 13 12 10 7 8 9 11 14 16 16 16 15 15 18 19 20 18 17 14 14 13
5 3 4 15 5 15 15 9 18 8 2 8 11 17 17 18 18 11 12 10 14 16 15 12 6 4 6 9 12 16 19 19 18 18 17 18 17 19 18 17 16 15 12 12
2 7 4 3 4 4 7 4 10 8 5 7 9 17 9 1 7 5 11 14 18 19 17 6 1 5 8 12 15 17 19 20 21 21 20 19 18 18 19 19 17 15 13 12
6 3 5 5 5 6 8 6 5 9 11 4 2 3 2 11 10 10 14 15 19 18 11 1 4 8 13 16 18 19 21 22 21 21 20 20 19 19 18 17 15 13 12 12
4 4 5 11 7 9 3 6 9 8 19 11 9 4 2 8 11 14 17 20 19 13 8 2 5 9 14 17 19 20 21 22 20 21 22 20 19 17 16 15 14 13 14 12
6 2 6 6 5 5 0 4 5 7 6 14 13 7 8 9 19 18 21 21 18 12 5 1 5 9 12 17 19 21 21 22 21 22 21 19 17 15 14 14 14 14 14 12
12 6 9 9 9 6 9 11 12 7 9 14 19 22 28 22 21 22 23 20 17 12 3 3 5 9 11 17 20 22 21 21 20 20 19 18 15 14 14 14 13 13 12 10
3 9 13 15 16 16 18 18 18 17 16 16 16 20 25 19 19 20 20 19 20 17 5 6 6 9 11 15 20 22 21 21 20 19 18 16 15 14 13 13 12 12 10 8
6 4 4 11 14 16 21 21 21 24 22 20 23 26 21 21 23 22 21 22 20 16 7 10 9 11 12 16 19 20 20 19 19 18 17 15 14 13 12 12 13 11 8 9
4 5 6 15 9 10 13 23 25 22 21 17 22 22 23 21 20 19 19 18 19 17 9 13 12 12 13 18 20 19 18 18 17 16 15 14 13 13 13 13 12 10 11 14
6 5 3 6 6 8 3 1 6 14 16 18 22 19 22 22 18 18 21 21 20 14 10 13 13 13 18 20 19 19 17 16 15 14 13 13 12 13 13 11 10 13 14 14
14 8 3 4 7 13 16 2 2 6 11 11 17 24 20 17 16 22 22 19 15 12 10 13 17 20 20 20 20 20 17 15 14 13 12 13 13 14 14 11 11 12 15 12
6 11 7 5 5 5 5 1 6 7 8 3 15 16 12 6 8 13 10 7 9 8 10 13 19 21 22 21 21 19 17 15 13 11 11 13 13 14 14 12 11 11 11 11
2 2 10 11 5 6 3 12 10 5 3 15 13 6 8 7 11 13 17 14 8 6 11 18 21 21 24 22 21 19 17 16 12 10 13 13 12 11 11 12 10 11 11 10
3 4 2 3 5 4 6 8 3 7 14 16 15 12 11 12 15 17 19 14 9 8 13 20 18 20 23 23 22 19 17 14 12 12 14 13 12 10 11 12 9 8 10 10
3 2 3 3 3 9 9 9 14 16 14 18 13 14 12 14 13 15 14 11 7 6 11 19 19 20 21 23 22 19 17 14 13 14 15 14 12 10 10 12 11 10 9 9
4 4 3 3 7 13 10 10 13 15 16 15 13 13 11 12 11 10 10 7 5 7 14 19 20 17 19 22 21 20 17 16 15 15 15 13 12 11 9 9 8 9 10 9
4 8 5 5 10 15 4 11 12 14 12 11 10 7 7 3 4 7 6 2 4 4 10 16 17 19 21 23 21 18 17 17 16 14 14 13 11 11 11 8 7 7 7 9
3 4 3 3 12 9 9 10 15 15 12 11 11 13 13 8 5 9 7 7 8 5 7 9 9 14 19 22 22 20 19 18 17 14 13 13 12 12 11 10 9 8 9 9
Wind_Direction
188 244 230 233 236 254 262 303 259 251 210 233 226 245 246 250 255 263 263 263 264 267 272 270 271 272 271 271 271 271 281 297 288 227 209 222 217 209 210 206 201 209 212 205
210 248 260 258 251 248 244 250 253 280 264 255 249 260 256 257 259 265 267 268 267 272 272 269 268 268 268 271 275 279 279 289 279 228 214 202 189 204 195 193 203 203 199 191
262 255 257 259 247 244 240 240 242 248 279 277 270 271 262 255 255 261 259 262 266 264 270 270 267 263 265 264 271 276 287 284 267 221 189 159 148 142 177 189 195 192 183 179
259 260 238 247 240 242 245 230 237 237 238 251 211 272 264 257 255 254 259 257 260 264 261 258 263 261 256 264 272 278 281 276 242 199 191 178 179 167 190 187 184 174 173 171
263 286 256 245 241 225 252 230 239 246 247 263 251 271 267 250 258 255 268 261 258 256 264 265 263 263 264 266 268 272 262 238 204 189 188 179 176 167 159 162 153 153 155 168
265 274 253 242 240 244 229 218 217 229 239 247 241 241 276 257 262 261 257 256 265 278 278 265 260 265 265 268 258 229 193 180 178 178 186 183 162 155 149 147 144 148 145 152
296 283 243 232 233 228 231 201 189 205 210 234 219 213 244 338 97 319 296 292 289 291 287 277 273 270 262 244 212 183 172 157 157 166 169 161 153 152 145 146 148 146 153 165
317 336 331 214 224 227 223 217 219 214 204 233 206 221 244 248 268 267 291 302 295 296 300 289 277 258 236 198 174 172 155 143 151 155 149 142 143 143 143 146 150 154 161 171
301 276 334 330 307 221 226 225 232 295 263 215 198 243 267 267 281 277 298 333 332 324 316 298 270 224 185 170 168 160 144 141 145 142 136 134 139 140 141 141 146 150 153 158
275 292 190 255 360 314 251 252 207 214 230 212 215 234 246 127 233 42 20 2 345 337 326 278 175 146 151 151 143 140 138 138 138 134 133 134 133 134 136 140 143 144 148 150
295 249 292 292 220 170 266 219 241 251 238 282 267 155 169 112 70 20 9 354 348 343 341 346 147 146 139 136 134 132 133 131 131 132 130 127 127 129 132 135 139 144 145 147
326 298 289 287 289 278 253 292 239 244 226 239 283 270 112 104 27 3 350 341 341 346 340 10 148 146 138 132 133 134 134 130 132 129 126 123 124 128 131 137 141 143 140 142
350 287 309 315 160 84 284 259 277 293 271 253 241 243 170 285 327 338 334 340 342 346 342 89 154 153 139 137 138 132 132 127 130 129 125 125 127 133 136 138 138 140 140 147
320 254 253 268 303 319 291 285 286 268 259 250 239 260 267 287 306 319 327 329 333 343 317 171 164 155 147 142 139 135 133 132 133 133 132 130 133 137 139 139 142 149 149 150
271 267 250 255 268 276 276 279 278 260 259 250 260 255 267 285 299 311 316 310 317 328 247 193 173 161 150 146 143 140 139 140 142 138 135 134 137 143 143 146 147 150 151 156
202 260 264 254 259 264 273 274 262 256 255 255 254 258 271 284 287 290 301 300 306 318 235 195 176 170 157 152 150 147 146 146 146 143 141 141 144 146 146 150 154 153 158 160
233 235 249 265 273 288 274 250 247 254 253 252 240 250 260 265 271 280 287 292 298 300 230 193 174 171 163 157 153 154 151 150 152 151 147 149 152 153 153 145 152 160 157 151
219 210 226 272 297 254 271 303 266 271 271 257 244 240 247 252 267 283 281 281 287 283 216 188 173 167 163 159 159 154 156 159 158 154 154 157 161 158 160 155 152 158 154 157
218 210 241 240 230 285 285 55 61 307 283 289 232 231 242 252 286 283 271 267 264 270 209 187 170 165 160 162 161 158 162 164 167 163 166 167 164 160 159 154 148 150 157 151
220 226 223 213 249 268 22 161 330 321 266 237 223 225 229 238 259 265 330 277 260 241 191 175 165 160 158 162 163 163 167 174 179 173 167 163 159 162 159 158 147 157 156 137
333 211 229 235 259 270 39 326 309 222 29 327 303 274 258 235 238 292 309 304 275 227 185 170 165 165 160 160 163 168 173 185 180 164 160 154 156 158 163 163 163 157 154 142
294 307 262 214 236 256 1 321 265 318 300 294 289 285 272 263 270 274 280 281 258 192 189 170 168 162 158 163 166 169 181 184 173 162 157 150 151 154 163 165 165 160 155 145
293 231 288 250 289 271 306 229 272 279 279 291 287 288 273 265 268 267 256 246 248 207 184 173 168 153 160 167 174 175 184 176 169 164 155 150 153 161 168 167 157 152 157 163
287 330 265 296 244 273 301 279 271 283 281 272 265 258 255 255 253 244 235 240 240 187 180 174 164 155 162 173 176 184 175 171 170 161 156 153 154 162 168 167 165 160 169 174
288 305 276 249 279 308 184 334 324 328 345 15 13 18 3 301 230 197 172 117 79 121 165 173 167 167 170 176 176 177 173 170 172 162 158 158 158 162 159 147 153 158 164 172
304 313 311 292 309 318 320 348 340 339 348 21 16 23 11 8 146 132 102 68 58 65 129 147 161 174 172 178 177 176 174 174 168 162 162 169 165 164 159 151 137 139 144 148